Hannibal Rgnl AP, Hannibal, M, MO

11:02 PM CST on November 18, 2019 (GMT -0600)
Hannibal Municipal

Weather History for KHAE - October, 2019

Change the Weather History Date:

Friday, October 18, 2019

  Actual Average Record
Temperature  
Mean Temperature 56 °F -  
Max Temperature 69 °F 63 °F 80 °F (2016)
Min Temperature 44 °F 42 °F 35 °F (2018)
Degree Days  
Heating Degree Days 8    
Growing Degree Days 6 (Base 50)    
Moisture  
Dew Point 38 °F    
Average Humidity 52    
Maximum Humidity 76    
Minimum Humidity 28    
Precipitation  
Precipitation 0.00 in - - ()
Sea Level Pressure  
Sea Level Pressure 29.91 in    
Wind  
Wind Speed 7 mph ()    
Max Wind Speed 14 mph    
Max Gust Speed 20 mph    
Visibility 10.0 miles    
Events      
Averages and records for this station are not official NWS values.
T = Trace of Precipitation, MM = Missing Value Source: Averaged Metar Reports

Daily Weather History Graph

Daily Weather History Graph

Search for Another Location

Airport or City:

Astronomy

Oct. 18, 2019 Rise Set
Actual Time 7:18 AM CDT 6:22 PM CDT
Civil Twilight 6:51 AM CDT 6:49 PM CDT
Nautical Twilight 6:20 AM CDT 7:20 PM CDT
Astronomical Twilight 5:49 AM CDT 7:52 PM CDT
Moon 9:39 PM CDT (10/18) 11:51 AM CDT (10/18)
Length of Visible Light 11h 58m
Length of Day
11h 03m
Waning Gibbous, 78% of the Moon is Illuminated
Oct 18
Waning Gibbous
Oct 21
Last Quarter
Oct 27
New
Nov 4
First Quarter
Nov 12
Full

Hourly Weather History & Observations

Time (CDT) Temp. Windchill Dew Point Humidity Pressure Visibility Wind Dir Wind Speed Gust Speed Precip Events Conditions
12:15 AM 50.0 °F - 35.6 °F 58% 29.98 in 10.0 mi SE 5.8 mph - N/A   Clear
12:35 AM 50.0 °F - 35.6 °F 58% 29.98 in 10.0 mi SE 4.6 mph - N/A   Clear
12:55 AM 50.0 °F - 35.6 °F 58% 29.98 in 10.0 mi SSE 5.8 mph - N/A   Clear
1:15 AM 50.0 °F - 35.6 °F 58% 29.98 in 10.0 mi SE 6.9 mph - N/A   Clear
1:35 AM 50.0 °F - 35.6 °F 58% 29.98 in 10.0 mi SE 4.6 mph - N/A   Clear
1:55 AM 50.0 °F - 35.6 °F 58% 29.97 in 10.0 mi SE 4.6 mph - N/A   Clear
2:15 AM 50.0 °F - 35.6 °F 58% 29.97 in 10.0 mi SE 4.6 mph - N/A   Clear
2:35 AM 50.0 °F - 35.6 °F 58% 29.97 in 10.0 mi SE 5.8 mph - N/A   Clear
3:15 AM 50.0 °F - 35.6 °F 58% 29.97 in 10.0 mi SE 5.8 mph - N/A   Clear
3:35 AM 48.2 °F - 35.6 °F 62% 29.97 in 10.0 mi ESE 5.8 mph - N/A   Clear
3:55 AM 46.4 °F 45.2 °F 35.6 °F 66% 29.97 in 10.0 mi ESE 3.5 mph - N/A   Clear
4:15 AM 44.6 °F 41.4 °F 37.4 °F 76% 29.96 in 10.0 mi ESE 5.8 mph - N/A   Clear
4:35 AM 44.6 °F 42.2 °F 37.4 °F 76% 29.96 in 10.0 mi ESE 4.6 mph - N/A   Clear
4:55 AM 44.6 °F 41.4 °F 37.4 °F 76% 29.96 in 10.0 mi SE 5.8 mph - N/A   Clear
5:15 AM 46.4 °F 42.9 °F 37.4 °F 71% 29.97 in 10.0 mi SSE 6.9 mph - N/A   Clear
5:35 AM 46.4 °F 43.5 °F 35.6 °F 66% 29.97 in 10.0 mi SSE 5.8 mph - N/A   Clear
5:55 AM 44.6 °F 41.4 °F 35.6 °F 71% 29.97 in 10.0 mi SE 5.8 mph - N/A   Clear
6:15 AM 46.4 °F 42.9 °F 37.4 °F 71% 29.97 in 10.0 mi SE 6.9 mph - N/A   Clear
6:35 AM 46.4 °F 43.5 °F 37.4 °F 71% 29.98 in 10.0 mi SE 5.8 mph - N/A   Clear
6:55 AM 46.4 °F 43.5 °F 37.4 °F 71% 29.97 in 10.0 mi SE 5.8 mph - N/A   Clear
7:55 AM 46.4 °F 42.9 °F 37.4 °F 71% 29.98 in 10.0 mi SE 6.9 mph - N/A   Clear
8:15 AM 48.2 °F - 39.2 °F 71% 29.98 in 10.0 mi SE 8.1 mph - N/A   Clear
8:35 AM 50.0 °F - 39.2 °F 66% 29.98 in 10.0 mi SSE 8.1 mph - N/A   Clear
8:55 AM 50.0 °F - 41.0 °F 71% 29.98 in 10.0 mi SSE 6.9 mph - N/A   Clear
9:35 AM 53.6 °F - 41.0 °F 62% 29.99 in 10.0 mi South 9.2 mph - N/A   Clear
9:55 AM 53.6 °F - 41.0 °F 62% 29.98 in 10.0 mi South 10.4 mph - N/A   Clear
10:15 AM 55.4 °F - 42.8 °F 63% 29.98 in 10.0 mi SSE 10.4 mph - N/A   Clear
10:35 AM 57.2 °F - 42.8 °F 59% 29.97 in 10.0 mi SE 8.1 mph - N/A   Clear
10:55 AM 60.8 °F - 42.8 °F 52% 29.97 in 10.0 mi SSE 9.2 mph - N/A   Clear
11:15 AM 62.6 °F - 42.8 °F 48% 29.96 in 10.0 mi SSE 11.5 mph 16.1 mph N/A   Clear
11:35 AM 62.6 °F - 42.8 °F 48% 29.96 in 10.0 mi South 11.5 mph 17.3 mph N/A   Clear
11:55 AM 64.4 °F - 41.0 °F 42% 29.96 in 10.0 mi SSE 8.1 mph 17.3 mph N/A   Clear
12:15 PM 64.4 °F - 42.8 °F 45% 29.95 in 10.0 mi South 12.7 mph - N/A   Clear
12:35 PM 66.2 °F - 41.0 °F 40% 29.94 in 10.0 mi SSE 11.5 mph 19.6 mph N/A   Clear
12:55 PM 64.4 °F - 41.0 °F 42% 29.93 in 10.0 mi South 12.7 mph - N/A   Clear
1:15 PM 68.0 °F - 37.4 °F 33% 29.92 in 10.0 mi SSE 11.5 mph 17.3 mph N/A   Clear
1:35 PM 68.0 °F - 37.4 °F 33% 29.91 in 10.0 mi SSE 13.8 mph 17.3 mph N/A   Clear
2:15 PM 69.8 °F - 35.6 °F 28% 29.89 in 10.0 mi South 12.7 mph 19.6 mph N/A   Clear
2:55 PM 69.8 °F - 35.6 °F 28% 29.87 in 10.0 mi SE 10.4 mph 16.1 mph N/A   Clear
3:35 PM 69.8 °F - 37.4 °F 31% 29.85 in 10.0 mi SE 8.1 mph - N/A   Clear
3:55 PM 69.8 °F - 35.6 °F 28% 29.85 in 10.0 mi SSE 10.4 mph 17.3 mph N/A   Clear
4:15 PM 69.8 °F - 35.6 °F 28% 29.84 in 10.0 mi SE 10.4 mph 17.3 mph N/A   Clear
4:35 PM 68.0 °F - 35.6 °F 30% 29.84 in 10.0 mi SSE 6.9 mph - N/A   Clear
4:55 PM 68.0 °F - 35.6 °F 30% 29.83 in 10.0 mi SSE 10.4 mph 18.4 mph N/A   Clear
5:15 PM 68.0 °F - 35.6 °F 30% 29.83 in 10.0 mi SE 11.5 mph - N/A   Clear
5:35 PM 66.2 °F - 37.4 °F 35% 29.83 in 10.0 mi SE 9.2 mph - N/A   Clear
5:55 PM 64.4 °F - 39.2 °F 40% 29.81 in 10.0 mi SE 8.1 mph 16.1 mph N/A   Clear
6:15 PM 62.6 °F - 39.2 °F 42% 29.81 in 10.0 mi SE 8.1 mph - N/A   Clear
6:35 PM 60.8 °F - 39.2 °F 45% 29.81 in 10.0 mi SE 6.9 mph - N/A   Clear
6:55 PM 60.8 °F - 39.2 °F 45% 29.81 in 10.0 mi SE 9.2 mph - N/A   Clear
7:15 PM 59.0 °F - 39.2 °F 48% 29.81 in 10.0 mi SE 6.9 mph - N/A   Clear
7:35 PM 59.0 °F - 39.2 °F 48% 29.82 in 10.0 mi SE 6.9 mph - N/A   Clear
7:55 PM 59.0 °F - 39.2 °F 48% 29.81 in 10.0 mi SE 9.2 mph - N/A   Clear
8:15 PM 59.0 °F - 39.2 °F 48% 29.81 in 10.0 mi SE 9.2 mph - N/A   Clear
8:35 PM 59.0 °F - 39.2 °F 48% 29.81 in 10.0 mi SE 9.2 mph 16.1 mph N/A   Clear
8:55 PM 59.0 °F - 39.2 °F 48% 29.82 in 10.0 mi SE 9.2 mph - N/A   Clear
9:35 PM 57.2 °F - 39.2 °F 51% 29.82 in 10.0 mi SSE 8.1 mph - N/A   Clear
9:55 PM 55.4 °F - 39.2 °F 54% 29.82 in 10.0 mi SSE 8.1 mph - N/A   Clear
10:15 PM 55.4 °F - 39.2 °F 54% 29.83 in 10.0 mi SSE 5.8 mph - N/A   Clear
10:35 PM 55.4 °F - 37.4 °F 51% 29.82 in 10.0 mi SSE 6.9 mph - N/A   Clear
10:55 PM 55.4 °F - 37.4 °F 51% 29.82 in 10.0 mi SSE 5.8 mph - N/A   Clear
11:15 PM 55.4 °F - 37.4 °F 51% 29.82 in 10.0 mi SSE 6.9 mph - N/A   Clear
11:35 PM 53.6 °F - 37.4 °F 54% 29.82 in 10.0 mi SSE 8.1 mph - N/A   Clear
11:55 PM 53.6 °F - 37.4 °F 54% 29.82 in 10.0 mi SSE 8.1 mph - N/A   Clear